Middletown, OH

10:03 PM EDT on June 22, 2017 (GMT -0400)
Hook Field Municipal

Weather History for KMWO - December, 2012

Change the Weather History Date:

Wednesday, December 5, 2012

  Actual Average (KFFO) Record (KFFO)
Temperature  
Mean Temperature 38 °F -  
Max Temperature 45 °F 43 °F 68 °F (2001)
Min Temperature 32 °F 28 °F 14 °F (2008)
Degree Days  
Heating Degree Days 26    
Moisture  
Dew Point 34 °F    
Average Humidity 87    
Maximum Humidity 100    
Minimum Humidity 64    
Precipitation  
Precipitation 0.00 in - - ()
Sea Level Pressure  
Sea Level Pressure 30.33 in    
Wind  
Wind Speed 3 mph (NNE)    
Max Wind Speed 12 mph    
Max Gust Speed -    
Visibility 6 miles    
Events Fog    
Averages and records for this station are not official NWS values.
T = Trace of Precipitation, MM = Missing Value Source: NWS Daily Summary

Daily Weather History Graph

Daily Weather History Graph

Search for Another Location

Airport or City:

Trip Planner

Search our weather history database for the weather conditions in past years. The results will help you decide how hot, cold, wet, or windy it might be!

Date:

Astronomy

Dec. 05, 2012 Rise Set
Actual Time 7:43 AM EST 5:13 PM EST
Civil Twilight 7:13 AM EST 5:43 PM EST
Nautical Twilight 6:39 AM EST 6:17 PM EST
Astronomical Twilight 6:07 AM EST 6:49 PM EST
Moon No Moon Rise 12:07 PM EST (12/5)
Length of Visible Light 10h 30m
Length of Day
9h 30m
Waning Gibbous, 60% of the Moon is Illuminated
Dec 5
Waning Gibbous
Dec 6
Last Quarter
Dec 13
New
Dec 20
First Quarter
Dec 28
Full

Hourly Weather History & Observations

Time (EST) Temp. Windchill Dew Point Humidity Pressure Visibility Wind Dir Wind Speed Gust Speed Precip Events Conditions
12:15 AM 37.6 °F - 37.6 °F 100% 30.22 in 0.5 mi Calm Calm - N/A Fog Fog
12:35 AM 37.6 °F - 37.6 °F 100% 30.23 in 0.5 mi Calm Calm - N/A Fog Fog
12:55 AM 37.6 °F 35.1 °F 37.6 °F 100% 30.23 in 0.5 mi SW 3.5 mph - N/A Fog Fog
1:15 AM 36.5 °F - 36.5 °F 100% 30.23 in 0.2 mi Calm Calm - N/A Fog Fog
1:35 AM 37.6 °F - 37.6 °F 100% 30.23 in 0.2 mi Calm Calm - N/A Fog Fog
1:55 AM 35.1 °F - 35.1 °F 100% 30.24 in 0.2 mi Calm Calm - N/A Fog Fog
2:15 AM 35.1 °F - 35.1 °F 100% 30.25 in 0.2 mi Calm Calm - N/A Fog Fog
2:55 AM 35.1 °F - 35.1 °F 100% 30.26 in 0.2 mi Calm Calm - N/A Fog Fog
3:15 AM 33.4 °F 30.4 °F 33.4 °F 100% 30.27 in 0.2 mi West 3.5 mph - N/A Fog Fog
3:35 AM 35.1 °F - 35.1 °F 100% 30.28 in 0.2 mi Calm Calm - N/A Fog Fog
3:55 AM 32.5 °F - 32.5 °F 100% 30.28 in 0.2 mi Calm Calm - N/A Fog Fog
4:15 AM 32.5 °F - 32.5 °F 100% 30.28 in 0.2 mi Calm Calm - N/A Fog Fog
4:35 AM 32.5 °F - 32.5 °F 100% 30.28 in 0.5 mi Calm Calm - N/A Fog Fog
4:55 AM 32.5 °F - 32.5 °F 100% 30.28 in 0.8 mi Calm Calm - N/A   Mostly Cloudy
5:15 AM 32.5 °F - 32.5 °F 100% 30.28 in 0.5 mi Calm Calm - N/A Fog Fog
5:35 AM 32.5 °F - 32.5 °F 100% 30.29 in 0.2 mi Calm Calm - N/A Fog Fog
5:55 AM 32.5 °F - 32.5 °F 100% 30.29 in 0.8 mi Calm Calm - N/A   Mostly Cloudy
6:15 AM 32.5 °F - 32.5 °F 100% 30.30 in 0.2 mi Calm Calm - N/A Fog Fog
6:35 AM 32.5 °F - 32.5 °F 100% 30.30 in 0.5 mi Calm Calm - N/A Fog Fog
6:55 AM 32.5 °F - 32.5 °F 100% 30.31 in 0.2 mi Calm Calm - N/A Fog Fog
7:15 AM 32.5 °F - 32.5 °F 100% 30.33 in 0.2 mi Calm Calm - N/A Fog Fog
7:35 AM 32.5 °F - 32.5 °F 100% 30.33 in 1.5 mi Calm Calm - N/A   Mist
7:55 AM 32.5 °F - 32.5 °F 100% 30.34 in 0.2 mi Calm Calm - N/A Fog Fog
9:35 AM 37.6 °F 32.3 °F 37.6 °F 100% 30.37 in 10.0 mi NNE 6.9 mph - N/A   Clear
9:55 AM 37.6 °F 30.0 °F 37.6 °F 100% 30.37 in 10.0 mi North 11.5 mph - N/A   Clear
10:15 AM 40.1 °F 33.2 °F 39.7 °F 99% 30.38 in 10.0 mi North 11.5 mph - N/A   Clear
10:35 AM 41.2 °F 35.0 °F 36.9 °F 85% 30.38 in 10.0 mi North 10.4 mph - N/A   Clear
10:55 AM 41.9 °F 36.3 °F 36.3 °F 81% 30.38 in 10.0 mi NNE 9.2 mph - N/A   Clear
11:15 AM 41.5 °F 36.4 °F 34.5 °F 76% 30.39 in 10.0 mi North 8.1 mph - N/A   Clear
11:35 AM 42.3 °F 38.6 °F 34.3 °F 74% 30.38 in 10.0 mi North 5.8 mph - N/A   Clear
11:55 AM 42.8 °F 39.3 °F 34.5 °F 73% 30.38 in 10.0 mi North 5.8 mph - N/A   Clear
12:15 PM 42.8 °F 38.0 °F 34.3 °F 72% 30.38 in 10.0 mi North 8.1 mph - N/A   Clear
12:35 PM 42.8 °F 40.1 °F 34.3 °F 72% 30.37 in 10.0 mi ENE 4.6 mph - N/A   Clear
12:55 PM 44.1 °F 40.8 °F 35.4 °F 72% 30.36 in 10.0 mi NNE 5.8 mph - N/A   Clear
1:15 PM 45.1 °F 39.9 °F 35.1 °F 68% 30.35 in 10.0 mi NE 10.4 mph - N/A   Clear
1:35 PM 45.1 °F 40.3 °F 33.6 °F 64% 30.35 in 10.0 mi NNE 9.2 mph - N/A   Clear
1:55 PM 45.1 °F 40.8 °F 33.8 °F 65% 30.35 in 10.0 mi NNW 8.1 mph - N/A   Clear
2:15 PM 45.1 °F 40.3 °F 33.8 °F 65% 30.35 in 10.0 mi North 9.2 mph - N/A   Clear
2:35 PM 45.0 °F 41.2 °F 33.8 °F 65% 30.35 in 10.0 mi NE 6.9 mph - N/A   Clear
2:55 PM 43.7 °F 41.1 °F 33.1 °F 66% 30.35 in 10.0 mi NNE 4.6 mph - N/A   Clear
3:15 PM 45.1 °F 41.4 °F 35.1 °F 68% 30.34 in 10.0 mi NNE 6.9 mph - N/A   Clear
3:35 PM 43.3 °F 38.6 °F 33.3 °F 68% 30.34 in 10.0 mi NNE 8.1 mph - N/A   Clear
3:55 PM 42.8 °F 38.6 °F 32.9 °F 68% 30.34 in 10.0 mi North 6.9 mph - N/A   Clear
4:15 PM 41.9 °F 36.9 °F 32.7 °F 70% 30.34 in 10.0 mi NNE 8.1 mph - N/A   Clear
4:35 PM 41.4 °F 36.2 °F 32.0 °F 69% 30.34 in 10.0 mi ENE 8.1 mph - N/A   Clear
4:55 PM 40.1 °F 34.1 °F 31.8 °F 72% 30.35 in 10.0 mi NE 9.2 mph - N/A   Clear
5:15 PM 38.8 °F 33.2 °F 31.5 °F 75% 30.35 in 10.0 mi NNE 8.1 mph - N/A   Clear
5:35 PM 37.6 °F 33.1 °F 31.3 °F 78% 30.35 in 10.0 mi NNE 5.8 mph - N/A   Clear
5:55 PM 37.6 °F 33.1 °F 32.0 °F 80% 30.35 in 10.0 mi NNE 5.8 mph - N/A   Clear
6:15 PM 37.2 °F 33.6 °F 32.0 °F 81% 30.36 in 10.0 mi North 4.6 mph - N/A   Clear
6:35 PM 35.1 °F 31.0 °F 30.7 °F 84% 30.36 in 10.0 mi North 4.6 mph - N/A   Clear
6:55 PM 35.1 °F 30.1 °F 31.6 °F 87% 30.35 in 10.0 mi NNE 5.8 mph - N/A   Clear
7:15 PM 35.1 °F 30.1 °F 32.0 °F 89% 30.35 in 7.0 mi NNE 5.8 mph - N/A   Clear
7:35 PM 35.1 °F 30.1 °F 31.8 °F 88% 30.36 in 10.0 mi NNE 5.8 mph - N/A   Clear
7:55 PM 35.1 °F 30.1 °F 32.0 °F 89% 30.35 in 10.0 mi NE 5.8 mph - N/A   Clear
8:15 PM 35.1 °F 27.4 °F 32.0 °F 89% 30.35 in 10.0 mi ENE 10.4 mph - N/A   Clear
8:35 PM 35.1 °F 27.9 °F 31.6 °F 87% 30.35 in 10.0 mi ENE 9.2 mph - N/A   Clear
8:55 PM 33.6 °F 26.8 °F 30.7 °F 89% 30.35 in 10.0 mi NE 8.1 mph - N/A   Clear
9:15 PM 32.5 °F 26.2 °F 30.0 °F 90% 30.34 in 10.0 mi NE 6.9 mph - N/A   Clear